Temp
-9 -10 -10 -11 -11 -11 -11 -11 -11 -11 -11 -11 -11 -11 -11 -11 -12 -12 -13 -13 -14 -14 -14 -14 -14 -14 -14 -14 -14 -14 -13 -13 -13 -13 -13 -13 -13 -13 -13 -13 -13 -13 -13 -13 -13 -13 -12 -12 -12 -12 -12 -12 -12 -11 -11 -11 -10 -10 -10 -10 -10 -9 -9 -9 -9 -8 -8 -8 -7
-9 -10 -10 -10 -11 -11 -11 -11 -11 -11 -11 -11 -11 -11 -11 -12 -12 -13 -13 -13 -14 -14 -14 -14 -14 -14 -14 -14 -14 -13 -13 -13 -13 -14 -14 -14 -14 -13 -13 -13 -13 -13 -13 -13 -13 -13 -12 -12 -12 -12 -12 -12 -12 -11 -11 -11 -11 -10 -10 -10 -10 -9 -9 -9 -9 -8 -8 -7 -7
-10 -10 -10 -10 -11 -11 -11 -11 -11 -11 -11 -11 -11 -11 -11 -12 -13 -13 -13 -14 -14 -14 -14 -14 -14 -14 -14 -14 -14 -14 -14 -14 -14 -14 -14 -14 -14 -14 -14 -13 -13 -13 -13 -13 -13 -13 -13 -13 -13 -13 -12 -12 -12 -11 -11 -11 -11 -11 -10 -10 -10 -9 -9 -9 -9 -8 -8 -7 -7
-10 -10 -10 -10 -11 -11 -11 -11 -11 -11 -11 -11 -11 -11 -12 -12 -13 -13 -14 -14 -13 -13 -14 -14 -14 -14 -14 -14 -14 -14 -14 -14 -14 -14 -14 -14 -14 -14 -14 -14 -14 -14 -14 -14 -13 -13 -13 -13 -13 -13 -12 -12 -12 -12 -11 -11 -11 -11 -10 -10 -10 -9 -9 -9 -8 -8 -8 -7 -7
-10 -10 -10 -11 -11 -11 -11 -12 -12 -11 -11 -11 -11 -12 -12 -12 -13 -13 -14 -14 -13 -13 -13 -13 -14 -14 -14 -14 -14 -14 -14 -14 -14 -14 -14 -14 -14 -14 -14 -14 -14 -14 -14 -14 -14 -13 -13 -13 -13 -12 -12 -12 -12 -12 -11 -11 -11 -10 -10 -10 -10 -10 -9 -9 -8 -8 -7 -7 -7
-10 -10 -10 -11 -11 -11 -11 -11 -12 -12 -11 -11 -11 -12 -12 -13 -13 -13 -14 -14 -13 -13 -13 -14 -14 -14 -14 -14 -14 -14 -14 -14 -14 -14 -14 -14 -14 -14 -14 -14 -14 -14 -14 -14 -13 -13 -13 -13 -12 -12 -12 -12 -12 -12 -11 -11 -11 -10 -10 -10 -10 -10 -9 -9 -8 -8 -8 -7 -7
-10 -10 -10 -11 -11 -11 -11 -11 -12 -12 -11 -11 -12 -12 -12 -13 -13 -13 -13 -13 -13 -13 -14 -14 -14 -14 -14 -14 -14 -14 -14 -14 -14 -14 -14 -14 -14 -14 -14 -14 -14 -14 -14 -14 -13 -13 -13 -13 -13 -13 -12 -12 -12 -11 -11 -11 -10 -10 -10 -10 -10 -10 -9 -9 -8 -8 -8 -8 -8
-10 -10 -10 -11 -11 -11 -11 -12 -12 -12 -12 -12 -12 -12 -12 -13 -13 -13 -13 -14 -14 -14 -14 -14 -14 -14 -14 -14 -14 -14 -14 -14 -14 -14 -14 -14 -14 -14 -14 -14 -14 -14 -14 -14 -13 -13 -13 -13 -13 -12 -12 -12 -12 -11 -10 -10 -10 -10 -10 -10 -10 -9 -9 -9 -8 -8 -8 -8 -8
-10 -10 -10 -11 -11 -11 -12 -12 -12 -12 -12 -12 -12 -12 -13 -13 -13 -14 -14 -14 -14 -14 -14 -14 -14 -14 -14 -14 -14 -14 -14 -14 -14 -14 -14 -14 -14 -14 -14 -14 -14 -14 -14 -14 -13 -13 -13 -13 -13 -12 -12 -12 -11 -11 -10 -10 -10 -10 -10 -10 -10 -9 -9 -8 -8 -8 -8 -8 -8
-10 -10 -10 -11 -11 -11 -12 -12 -12 -12 -12 -12 -13 -13 -13 -14 -14 -14 -14 -14 -14 -14 -14 -14 -14 -14 -14 -14 -14 -14 -14 -14 -14 -14 -14 -14 -14 -14 -14 -14 -14 -14 -14 -14 -14 -13 -13 -13 -12 -12 -12 -11 -11 -10 -10 -10 -10 -10 -10 -10 -9 -9 -8 -8 -8 -8 -8 -8 -8
-10 -10 -11 -11 -11 -12 -12 -12 -12 -13 -13 -13 -14 -14 -14 -14 -14 -14 -14 -14 -14 -14 -14 -13 -13 -14 -14 -14 -14 -14 -14 -14 -14 -14 -14 -14 -14 -14 -14 -14 -14 -14 -14 -14 -14 -13 -13 -13 -12 -12 -11 -11 -11 -10 -10 -10 -11 -10 -10 -9 -9 -8 -8 -8 -8 -8 -8 -8 -8
-10 -11 -11 -11 -12 -12 -12 -13 -13 -13 -14 -14 -14 -14 -14 -15 -15 -14 -14 -14 -14 -14 -14 -13 -13 -14 -14 -14 -14 -14 -14 -14 -14 -14 -14 -14 -14 -14 -14 -14 -14 -14 -14 -14 -14 -14 -13 -13 -12 -11 -11 -11 -10 -11 -11 -11 -10 -10 -9 -9 -8 -8 -8 -8 -8 -8 -8 -8 -8
-11 -11 -12 -12 -12 -13 -13 -13 -14 -14 -14 -15 -15 -15 -15 -15 -15 -15 -15 -14 -14 -14 -14 -14 -14 -14 -14 -14 -14 -15 -15 -14 -14 -14 -14 -14 -14 -14 -14 -14 -14 -14 -14 -14 -14 -13 -13 -12 -12 -11 -10 -10 -10 -11 -11 -11 -10 -10 -9 -8 -8 -8 -8 -8 -9 -9 -8 -8 -8
-11 -12 -12 -13 -13 -13 -14 -14 -14 -15 -15 -15 -15 -15 -15 -15 -15 -15 -15 -14 -14 -14 -14 -14 -14 -14 -14 -15 -15 -15 -15 -14 -14 -14 -14 -14 -14 -14 -14 -14 -14 -14 -14 -14 -14 -13 -13 -12 -11 -10 -10 -10 -10 -10 -10 -10 -10 -9 -9 -8 -8 -8 -8 -9 -9 -9 -8 -8 -8
-12 -13 -13 -13 -13 -14 -14 -14 -15 -15 -15 -15 -15 -15 -15 -15 -15 -15 -15 -14 -14 -14 -14 -14 -14 -15 -15 -15 -15 -15 -15 -14 -14 -14 -14 -14 -14 -14 -14 -14 -14 -14 -14 -14 -13 -13 -12 -12 -11 -10 -10 -10 -10 -10 -10 -9 -9 -9 -9 -8 -8 -9 -9 -9 -9 -8 -8 -8 -7
-13 -13 -13 -14 -14 -14 -14 -14 -15 -15 -15 -15 -15 -15 -15 -15 -15 -15 -15 -14 -14 -14 -14 -15 -15 -15 -15 -15 -15 -15 -14 -14 -14 -14 -14 -14 -14 -14 -14 -14 -14 -14 -14 -14 -13 -12 -11 -11 -10 -10 -10 -10 -10 -10 -9 -9 -9 -9 -9 -9 -9 -9 -9 -9 -8 -8 -8 -7 -7
-13 -14 -14 -14 -14 -14 -14 -15 -15 -15 -15 -15 -15 -15 -15 -15 -15 -15 -15 -15 -15 -15 -15 -15 -15 -15 -15 -15 -15 -14 -14 -14 -14 -14 -14 -14 -14 -14 -14 -14 -14 -14 -14 -13 -12 -11 -10 -10 -9 -10 -10 -10 -10 -9 -9 -9 -9 -9 -9 -9 -9 -9 -9 -8 -8 -8 -8 -7 -8
-14 -14 -14 -14 -14 -14 -15 -15 -15 -15 -15 -15 -15 -15 -15 -15 -15 -15 -15 -15 -15 -15 -15 -15 -15 -15 -15 -15 -15 -14 -14 -14 -14 -14 -14 -14 -14 -14 -14 -14 -14 -13 -13 -13 -12 -11 -10 -9 -9 -10 -10 -10 -9 -9 -9 -9 -9 -9 -9 -9 -9 -9 -8 -8 -8 -8 -8 -8 -8
-14 -14 -14 -14 -15 -15 -15 -15 -15 -15 -15 -15 -15 -15 -15 -15 -15 -15 -15 -15 -15 -15 -15 -15 -15 -15 -15 -15 -15 -14 -14 -14 -14 -14 -14 -14 -14 -14 -14 -14 -13 -13 -13 -12 -11 -10 -10 -10 -10 -10 -10 -10 -9 -8 -9 -9 -9 -9 -9 -9 -9 -8 -8 -8 -8 -8 -8 -8 -8
-14 -14 -14 -15 -15 -15 -15 -15 -15 -15 -15 -15 -15 -15 -15 -15 -15 -15 -15 -15 -15 -15 -15 -15 -15 -15 -15 -15 -15 -15 -14 -14 -14 -14 -14 -14 -14 -14 -14 -13 -13 -13 -13 -12 -11 -10 -10 -10 -10 -10 -10 -9 -9 -8 -9 -9 -9 -9 -9 -8 -8 -8 -8 -8 -8 -8 -8 -8 -8
-14 -15 -15 -15 -15 -15 -15 -15 -15 -15 -15 -15 -15 -15 -15 -15 -15 -15 -15 -15 -15 -15 -15 -15 -15 -15 -15 -15 -15 -15 -14 -14 -14 -14 -14 -14 -14 -14 -13 -13 -13 -13 -12 -11 -10 -10 -10 -10 -10 -9 -9 -9 -9 -9 -9 -9 -9 -9 -8 -8 -8 -8 -8 -8 -8 -8 -8 -8 -8
-15 -15 -15 -15 -15 -15 -15 -15 -15 -15 -15 -15 -15 -15 -15 -15 -15 -15 -15 -15 -15 -15 -15 -15 -15 -15 -15 -15 -15 -15 -14 -14 -14 -14 -14 -14 -14 -14 -13 -13 -13 -13 -12 -11 -10 -10 -11 -10 -10 -9 -9 -9 -8 -9 -9 -9 -9 -8 -8 -8 -8 -8 -8 -8 -9 -9 -9 -8 -8
-14 -15 -15 -15 -15 -15 -15 -15 -15 -15 -15 -15 -15 -15 -15 -15 -15 -15 -15 -15 -15 -15 -15 -15 -15 -15 -15 -15 -15 -14 -14 -14 -14 -14 -14 -14 -14 -13 -13 -13 -13 -13 -12 -11 -10 -11 -11 -11 -10 -9 -9 -8 -8 -9 -9 -9 -9 -8 -8 -8 -8 -8 -8 -9 -9 -9 -9 -9 -8
-14 -14 -15 -15 -15 -15 -15 -15 -15 -15 -15 -15 -15 -15 -15 -15 -15 -15 -15 -15 -15 -15 -15 -15 -15 -15 -14 -14 -14 -14 -14 -14 -14 -14 -14 -14 -13 -13 -13 -13 -13 -12 -11 -11 -11 -11 -11 -10 -9 -9 -9 -9 -9 -9 -9 -9 -9 -8 -8 -8 -8 -8 -8 -9 -9 -9 -9 -8 -8
-14 -14 -14 -15 -15 -15 -15 -15 -15 -15 -15 -15 -15 -15 -15 -15 -15 -15 -15 -15 -15 -14 -14 -14 -14 -14 -14 -14 -14 -14 -14 -14 -14 -14 -14 -13 -13 -13 -13 -13 -13 -12 -11 -11 -11 -11 -11 -10 -9 -9 -9 -9 -9 -9 -9 -9 -9 -8 -8 -8 -8 -8 -9 -9 -9 -9 -8 -8 -8
-13 -14 -14 -15 -15 -15 -15 -15 -15 -15 -15 -15 -15 -15 -15 -15 -15 -15 -15 -14 -14 -14 -14 -14 -14 -14 -14 -14 -14 -14 -14 -14 -14 -14 -14 -13 -13 -13 -13 -13 -12 -12 -11 -11 -11 -11 -10 -9 -8 -8 -9 -9 -9 -9 -9 -9 -8 -8 -8 -8 -8 -9 -9 -9 -9 -8 -8 -8 -8
-13 -14 -14 -15 -15 -15 -15 -15 -15 -15 -15 -15 -15 -15 -15 -15 -15 -15 -15 -14 -14 -14 -14 -14 -14 -14 -14 -14 -14 -14 -14 -14 -14 -14 -13 -13 -13 -13 -13 -13 -12 -12 -12 -11 -11 -10 -9 -8 -8 -9 -9 -9 -9 -9 -9 -9 -8 -8 -8 -9 -9 -9 -9 -9 -9 -9 -8 -8 -8
-14 -14 -14 -14 -15 -15 -15 -15 -15 -15 -15 -15 -15 -15 -15 -15 -15 -15 -14 -14 -14 -14 -14 -14 -14 -14 -14 -14 -14 -14 -14 -14 -13 -13 -13 -13 -13 -13 -13 -13 -12 -12 -12 -12 -11 -10 -9 -9 -9 -9 -9 -9 -9 -9 -9 -9 -9 -9 -9 -9 -9 -9 -9 -9 -9 -9 -9 -9 -8
-14 -14 -14 -14 -14 -14 -14 -14 -14 -15 -15 -15 -15 -15 -15 -15 -15 -14 -14 -14 -14 -14 -14 -14 -14 -14 -14 -14 -14 -13 -13 -13 -13 -13 -13 -13 -13 -13 -13 -13 -12 -12 -12 -12 -10 -9 -9 -9 -10 -10 -9 -9 -9 -9 -9 -9 -9 -9 -9 -9 -9 -9 -9 -9 -9 -9 -9 -9 -9
-14 -14 -14 -14 -14 -14 -14 -14 -14 -14 -15 -15 -15 -15 -15 -15 -14 -14 -14 -14 -14 -14 -14 -14 -14 -14 -14 -14 -13 -13 -13 -13 -13 -13 -13 -13 -13 -13 -13 -12 -12 -12 -12 -11 -10 -9 -9 -10 -10 -10 -10 -9 -9 -9 -9 -9 -9 -9 -9 -9 -9 -9 -9 -9 -9 -9 -9 -9 -9
-14 -14 -14 -14 -14 -14 -14 -14 -14 -14 -14 -14 -15 -14 -14 -14 -14 -14 -14 -14 -14 -14 -14 -14 -14 -14 -14 -13 -13 -13 -13 -13 -13 -13 -13 -13 -13 -13 -13 -12 -12 -12 -12 -11 -10 -10 -10 -10 -10 -10 -10 -10 -10 -10 -10 -10 -10 -10 -10 -10 -10 -9 -9 -9 -9 -9 -10 -10 -9
-14 -14 -14 -14 -14 -14 -14 -14 -14 -14 -14 -14 -14 -14 -14 -14 -14 -14 -14 -14 -14 -14 -14 -14 -14 -13 -13 -13 -13 -13 -13 -13 -13 -13 -13 -13 -13 -13 -12 -12 -12 -12 -12 -11 -10 -10 -10 -10 -10 -10 -10 -10 -10 -10 -10 -10 -10 -10 -10 -10 -10 -10 -10 -9 -9 -9 -9 -9 -10
-14 -14 -14 -14 -14 -14 -14 -14 -14 -14 -14 -14 -14 -14 -14 -14 -14 -14 -14 -13 -13 -13 -13 -13 -13 -13 -13 -13 -13 -13 -13 -13 -13 -13 -13 -13 -13 -12 -12 -12 -12 -12 -12 -12 -11 -10 -10 -11 -10 -10 -10 -10 -10 -10 -10 -10 -10 -10 -10 -10 -10 -10 -10 -10 -9 -9 -9 -9 -10
-14 -14 -14 -14 -14 -14 -14 -14 -14 -14 -14 -14 -14 -14 -14 -14 -14 -14 -13 -13 -13 -13 -13 -13 -13 -13 -13 -13 -13 -13 -13 -12 -13 -13 -12 -13 -12 -12 -12 -11 -11 -11 -12 -12 -11 -10 -10 -11 -10 -10 -10 -10 -10 -10 -10 -10 -10 -10 -10 -10 -10 -10 -10 -10 -10 -9 -9 -9 -9
-14 -14 -14 -14 -14 -14 -14 -14 -14 -14 -14 -14 -14 -14 -14 -14 -14 -14 -13 -13 -13 -13 -13 -13 -13 -13 -13 -13 -12 -12 -12 -12 -12 -12 -12 -12 -12 -12 -11 -11 -11 -11 -11 -11 -11 -10 -10 -10 -10 -10 -10 -10 -10 -11 -11 -11 -11 -10 -10 -10 -10 -10 -10 -10 -10 -10 -9 -9 -9
-14 -14 -14 -14 -14 -14 -14 -14 -14 -14 -14 -14 -14 -14 -14 -14 -14 -14 -13 -13 -13 -13 -13 -13 -13 -13 -12 -12 -12 -12 -12 -12 -12 -12 -12 -12 -12 -12 -11 -11 -11 -11 -11 -11 -10 -10 -10 -11 -10 -10 -10 -10 -10 -11 -11 -11 -11 -11 -11 -11 -10 -10 -11 -10 -10 -10 -10 -9 -9
-14 -14 -14 -14 -14 -13 -13 -14 -14 -14 -14 -14 -14 -14 -14 -14 -14 -14 -13 -13 -13 -13 -13 -13 -13 -12 -12 -12 -12 -12 -12 -12 -12 -12 -12 -12 -12 -12 -12 -11 -11 -11 -11 -10 -10 -10 -10 -10 -11 -11 -10 -10 -11 -11 -11 -11 -12 -12 -12 -11 -11 -11 -11 -11 -11 -10 -10 -10 -10
-14 -14 -14 -14 -13 -13 -14 -14 -14 -14 -14 -14 -14 -14 -14 -14 -14 -14 -13 -13 -13 -13 -13 -13 -12 -12 -12 -12 -12 -12 -12 -12 -12 -12 -12 -12 -12 -12 -12 -11 -11 -11 -11 -11 -11 -11 -10 -10 -11 -11 -11 -11 -11 -11 -11 -11 -12 -12 -12 -12 -12 -12 -11 -11 -11 -11 -11 -10 -10
-14 -14 -14 -13 -13 -14 -14 -14 -14 -14 -14 -14 -14 -14 -14 -13 -13 -13 -13 -13 -13 -13 -13 -13 -12 -12 -12 -12 -12 -12 -12 -12 -12 -12 -12 -12 -12 -12 -12 -12 -11 -11 -11 -11 -11 -11 -10 -11 -11 -11 -11 -11 -12 -12 -12 -12 -12 -12 -12 -12 -12 -12 -12 -11 -11 -11 -11 -11 -11
-14 -14 -14 -13 -13 -14 -14 -14 -14 -14 -14 -14 -14 -14 -14 -13 -13 -13 -13 -13 -13 -13 -13 -12 -12 -12 -12 -12 -12 -12 -12 -12 -12 -12 -12 -12 -12 -12 -12 -12 -12 -12 -11 -11 -11 -11 -11 -11 -11 -11 -12 -12 -12 -12 -12 -12 -12 -12 -12 -12 -12 -12 -12 -12 -12 -11 -11 -11 -11
-14 -14 -13 -13 -14 -14 -14 -14 -14 -14 -14 -14 -14 -14 -13 -13 -13 -13 -13 -13 -13 -13 -13 -12 -12 -12 -12 -12 -12 -12 -12 -12 -12 -12 -12 -12 -12 -12 -12 -12 -12 -12 -12 -12 -11 -11 -11 -11 -11 -11 -11 -12 -12 -12 -12 -12 -12 -12 -12 -12 -12 -12 -13 -13 -12 -12 -12 -12 -11
Height
1541 1540 1538 1536 1535 1533 1531 1530 1528 1526 1525 1523 1520 1519 1517 1515 1514 1512 1511 1510 1508 1507 1505 1504 1503 1501 1500 1499 1497 1496 1494 1492 1490 1489 1487 1486 1484 1483 1481 1480 1479 1477 1476 1475 1473 1472 1471 1470 1469 1468 1467 1465 1464 1463 1462 1461 1460 1459 1458 1457 1456 1455 1453 1451 1450 1449 1448 1448 1448
1540 1539 1537 1535 1534 1532 1530 1529 1527 1525 1524 1522 1520 1518 1516 1515 1513 1511 1510 1509 1508 1506 1505 1503 1502 1500 1499 1498 1496 1495 1492 1490 1489 1487 1486 1485 1483 1481 1480 1479 1477 1476 1475 1474 1472 1471 1470 1469 1468 1466 1465 1464 1462 1461 1460 1460 1459 1458 1457 1455 1455 1453 1451 1450 1449 1448 1447 1446 1446
1540 1538 1536 1535 1533 1531 1530 1528 1526 1525 1523 1521 1520 1518 1516 1514 1513 1511 1510 1509 1507 1506 1505 1503 1501 1500 1498 1496 1495 1493 1491 1490 1488 1486 1485 1483 1482 1480 1479 1477 1476 1475 1474 1473 1472 1471 1470 1468 1466 1465 1463 1462 1461 1460 1459 1458 1457 1456 1455 1454 1453 1451 1450 1449 1447 1446 1446 1445 1445
1539 1537 1535 1534 1532 1530 1529 1527 1525 1524 1522 1520 1519 1517 1515 1514 1512 1511 1509 1508 1506 1505 1504 1502 1500 1499 1497 1496 1494 1492 1490 1489 1487 1486 1484 1482 1481 1479 1478 1476 1475 1474 1472 1471 1471 1470 1468 1466 1465 1463 1461 1460 1459 1458 1458 1457 1456 1455 1454 1453 1451 1450 1449 1447 1446 1445 1445 1444 1443
1538 1536 1535 1533 1531 1530 1528 1526 1525 1523 1521 1520 1518 1516 1515 1513 1512 1510 1509 1507 1506 1504 1503 1501 1500 1498 1496 1495 1493 1491 1490 1488 1487 1485 1483 1481 1480 1478 1477 1475 1474 1473 1471 1470 1469 1468 1466 1465 1463 1461 1460 1459 1458 1457 1457 1456 1455 1453 1452 1451 1450 1449 1447 1446 1445 1444 1443 1442 1442
1536 1535 1534 1532 1530 1529 1527 1525 1524 1522 1520 1519 1517 1515 1514 1512 1511 1510 1508 1506 1505 1503 1501 1500 1499 1497 1496 1494 1492 1490 1489 1487 1485 1484 1482 1480 1479 1477 1476 1474 1473 1472 1470 1469 1468 1466 1465 1463 1461 1460 1459 1458 1457 1456 1455 1454 1453 1452 1451 1450 1448 1447 1445 1444 1443 1442 1442 1441 1440
1536 1534 1533 1531 1530 1528 1526 1525 1523 1521 1520 1518 1516 1515 1513 1511 1510 1509 1507 1505 1504 1502 1500 1499 1498 1496 1495 1493 1491 1489 1488 1486 1484 1483 1481 1480 1478 1476 1475 1473 1472 1470 1469 1468 1466 1465 1463 1462 1460 1459 1458 1457 1455 1454 1454 1453 1452 1451 1449 1448 1446 1445 1444 1443 1442 1441 1440 1440 1439
1535 1534 1532 1530 1529 1527 1525 1523 1522 1520 1518 1517 1515 1513 1512 1510 1509 1507 1506 1504 1502 1501 1500 1498 1497 1495 1494 1492 1490 1489 1487 1485 1483 1482 1480 1479 1477 1475 1474 1472 1471 1469 1468 1466 1465 1463 1462 1460 1459 1458 1456 1455 1454 1453 1452 1451 1450 1449 1447 1445 1444 1443 1442 1441 1441 1440 1440 1439 1438
1534 1532 1531 1529 1527 1525 1524 1522 1520 1519 1517 1515 1514 1512 1511 1509 1508 1506 1505 1503 1501 1500 1499 1498 1496 1495 1493 1491 1490 1488 1486 1484 1482 1481 1479 1478 1476 1474 1472 1471 1469 1468 1466 1465 1463 1462 1460 1459 1458 1456 1455 1454 1453 1451 1450 1450 1449 1447 1445 1444 1442 1441 1440 1440 1440 1439 1438 1437 1436
1533 1531 1529 1527 1526 1524 1522 1520 1519 1517 1515 1514 1512 1511 1510 1508 1507 1505 1504 1502 1501 1500 1498 1497 1495 1494 1492 1490 1488 1487 1485 1483 1481 1480 1478 1477 1475 1473 1471 1470 1468 1466 1465 1463 1462 1460 1459 1457 1456 1455 1454 1453 1451 1450 1449 1448 1446 1445 1443 1442 1441 1440 1439 1439 1439 1438 1437 1436 1435
1532 1530 1528 1526 1525 1523 1521 1519 1517 1516 1514 1513 1511 1510 1509 1507 1506 1505 1503 1502 1500 1499 1498 1496 1495 1493 1491 1489 1487 1486 1484 1482 1480 1479 1477 1475 1474 1472 1470 1469 1467 1465 1464 1462 1460 1459 1457 1456 1454 1453 1452 1451 1450 1449 1447 1446 1444 1443 1441 1440 1440 1439 1438 1438 1437 1437 1436 1435 1434
1531 1529 1527 1525 1523 1521 1520 1518 1516 1515 1513 1512 1510 1509 1507 1506 1505 1504 1502 1501 1500 1498 1497 1496 1495 1493 1490 1488 1486 1485 1483 1481 1480 1478 1476 1475 1473 1471 1469 1468 1466 1464 1462 1461 1459 1458 1456 1454 1453 1451 1450 1449 1448 1447 1445 1444 1442 1441 1440 1439 1439 1438 1438 1437 1436 1435 1434 1434 1433
1530 1528 1526 1524 1522 1520 1518 1517 1515 1514 1512 1511 1510 1508 1507 1505 1504 1503 1501 1500 1499 1497 1496 1495 1494 1492 1490 1487 1485 1483 1482 1480 1478 1477 1475 1474 1472 1470 1468 1466 1465 1463 1461 1459 1458 1456 1455 1453 1451 1450 1448 1447 1446 1445 1444 1442 1441 1440 1439 1438 1438 1437 1437 1436 1435 1434 1433 1433 1432
1529 1527 1525 1523 1521 1519 1518 1516 1515 1513 1512 1510 1509 1508 1506 1505 1503 1502 1501 1499 1498 1496 1495 1494 1492 1490 1488 1486 1484 1482 1480 1479 1477 1475 1474 1473 1471 1469 1467 1465 1463 1462 1460 1458 1456 1455 1453 1451 1450 1448 1447 1445 1444 1443 1441 1440 1440 1439 1438 1438 1437 1437 1436 1435 1434 1433 1432 1432 1431
1527 1526 1524 1522 1520 1519 1517 1515 1514 1513 1511 1510 1509 1507 1506 1504 1503 1501 1500 1499 1497 1496 1494 1492 1490 1489 1487 1485 1483 1481 1480 1478 1476 1474 1473 1471 1470 1468 1466 1464 1462 1460 1458 1456 1454 1453 1451 1450 1449 1447 1446 1444 1442 1441 1440 1439 1439 1438 1438 1437 1437 1436 1435 1434 1433 1432 1432 1431 1430
1526 1525 1523 1521 1520 1518 1517 1515 1514 1512 1511 1509 1508 1507 1505 1504 1502 1501 1499 1498 1496 1495 1493 1491 1489 1487 1485 1484 1482 1480 1478 1477 1475 1473 1472 1470 1468 1466 1464 1462 1460 1459 1457 1455 1452 1451 1450 1449 1448 1446 1445 1443 1441 1440 1439 1438 1438 1438 1437 1437 1436 1435 1435 1434 1433 1432 1431 1430 1429
1525 1524 1522 1520 1519 1518 1516 1515 1513 1512 1510 1509 1508 1506 1505 1503 1502 1500 1499 1497 1495 1494 1492 1490 1488 1486 1484 1483 1481 1479 1478 1476 1474 1472 1471 1469 1467 1465 1463 1461 1459 1457 1455 1453 1451 1449 1448 1447 1446 1445 1444 1442 1440 1439 1438 1438 1437 1437 1436 1436 1435 1435 1434 1434 1433 1432 1431 1430 1429
1525 1523 1521 1520 1518 1517 1515 1514 1513 1511 1510 1509 1507 1506 1504 1503 1501 1500 1498 1497 1495 1493 1491 1489 1487 1485 1484 1482 1480 1478 1477 1475 1473 1471 1470 1468 1466 1464 1462 1460 1458 1456 1454 1452 1450 1448 1447 1446 1445 1444 1442 1440 1439 1438 1437 1437 1436 1436 1435 1435 1435 1435 1434 1433 1433 1432 1430 1429 1428
1524 1523 1521 1520 1518 1516 1515 1514 1512 1511 1510 1508 1507 1505 1504 1502 1500 1499 1497 1495 1494 1492 1490 1488 1486 1485 1483 1481 1479 1478 1476 1474 1472 1471 1469 1467 1465 1463 1461 1459 1457 1455 1453 1451 1449 1447 1446 1445 1444 1442 1440 1438 1437 1437 1436 1436 1436 1435 1435 1435 1435 1434 1434 1433 1432 1431 1430 1428 1427
1524 1522 1521 1519 1518 1516 1515 1513 1512 1511 1510 1508 1506 1505 1503 1502 1500 1498 1497 1495 1493 1491 1490 1487 1485 1484 1482 1480 1478 1477 1475 1473 1472 1470 1468 1466 1464 1462 1460 1458 1456 1454 1452 1450 1448 1447 1445 1444 1442 1440 1438 1436 1436 1435 1435 1435 1435 1435 1435 1435 1435 1434 1433 1432 1431 1430 1429 1428 1427
1524 1522 1520 1519 1517 1516 1515 1513 1512 1510 1509 1507 1506 1505 1503 1501 1500 1498 1496 1494 1492 1490 1489 1487 1485 1483 1481 1480 1478 1476 1474 1472 1471 1469 1467 1465 1463 1461 1460 1457 1455 1453 1451 1449 1447 1446 1444 1441 1439 1437 1436 1435 1435 1435 1435 1435 1435 1435 1435 1434 1434 1433 1433 1432 1431 1430 1429 1428 1427
1524 1522 1520 1519 1517 1516 1515 1513 1512 1510 1509 1507 1506 1504 1502 1501 1499 1497 1496 1494 1492 1490 1489 1487 1485 1483 1481 1479 1477 1475 1473 1472 1470 1468 1466 1464 1462 1460 1459 1457 1454 1452 1450 1448 1446 1444 1441 1439 1437 1436 1435 1435 1435 1435 1435 1435 1435 1435 1434 1434 1433 1433 1432 1431 1430 1430 1429 1428 1426
1523 1521 1520 1518 1517 1515 1514 1513 1511 1510 1508 1507 1505 1504 1502 1500 1499 1497 1495 1494 1492 1490 1488 1486 1484 1482 1480 1479 1477 1475 1473 1471 1469 1467 1465 1463 1461 1460 1458 1456 1454 1451 1449 1447 1445 1442 1439 1437 1436 1436 1436 1436 1435 1435 1435 1435 1434 1433 1433 1433 1433 1432 1432 1431 1430 1430 1429 1428 1426
1523 1521 1520 1518 1517 1515 1514 1513 1511 1510 1508 1506 1505 1503 1501 1500 1498 1496 1495 1493 1491 1490 1488 1486 1484 1482 1480 1478 1476 1475 1473 1470 1468 1466 1464 1462 1461 1459 1457 1455 1453 1451 1449 1446 1444 1441 1439 1438 1438 1438 1436 1435 1435 1435 1435 1434 1433 1433 1433 1433 1432 1432 1431 1431 1430 1430 1429 1428 1426
1523 1521 1520 1518 1516 1515 1514 1512 1511 1509 1508 1506 1505 1503 1501 1500 1498 1496 1494 1493 1491 1489 1487 1485 1484 1482 1480 1478 1476 1475 1472 1470 1468 1465 1463 1461 1460 1459 1457 1455 1452 1450 1448 1446 1443 1440 1439 1439 1440 1438 1435 1435 1435 1435 1434 1433 1433 1433 1433 1433 1432 1431 1431 1430 1430 1430 1429 1428 1427
1522 1521 1519 1518 1516 1515 1514 1512 1511 1509 1508 1506 1504 1503 1501 1499 1497 1496 1494 1492 1490 1489 1487 1485 1483 1482 1480 1478 1476 1474 1472 1470 1467 1465 1463 1461 1460 1458 1456 1454 1452 1450 1448 1445 1443 1440 1440 1440 1440 1437 1435 1435 1435 1435 1434 1433 1433 1433 1433 1432 1431 1430 1430 1431 1430 1430 1429 1428 1427
1522 1520 1519 1518 1516 1515 1514 1512 1511 1509 1508 1506 1504 1502 1501 1499 1497 1495 1494 1492 1490 1488 1487 1485 1483 1482 1480 1478 1476 1474 1471 1470 1467 1465 1463 1462 1460 1458 1456 1454 1452 1450 1448 1445 1443 1442 1442 1442 1440 1437 1436 1436 1435 1435 1434 1433 1433 1433 1432 1431 1431 1430 1431 1431 1430 1430 1429 1428 1427
1522 1520 1519 1518 1516 1515 1514 1512 1511 1509 1507 1506 1504 1502 1501 1499 1497 1495 1494 1492 1490 1488 1486 1485 1484 1482 1480 1478 1476 1474 1472 1470 1467 1465 1463 1461 1460 1458 1456 1454 1452 1450 1448 1445 1444 1444 1443 1441 1439 1438 1437 1437 1436 1435 1434 1434 1434 1433 1432 1431 1431 1431 1431 1431 1431 1430 1430 1429 1427
1522 1520 1519 1518 1517 1515 1514 1512 1511 1509 1507 1506 1504 1502 1500 1499 1497 1495 1494 1492 1490 1488 1487 1485 1484 1482 1480 1478 1476 1474 1472 1470 1467 1465 1463 1461 1460 1458 1456 1455 1453 1451 1448 1445 1447 1446 1443 1440 1439 1439 1438 1437 1436 1435 1435 1435 1434 1433 1433 1432 1432 1432 1432 1432 1431 1431 1430 1430 1428
1522 1521 1520 1518 1517 1515 1514 1512 1511 1509 1508 1506 1504 1502 1500 1499 1497 1495 1494 1492 1490 1489 1487 1486 1484 1482 1480 1478 1476 1475 1472 1470 1467 1465 1463 1461 1460 1458 1457 1455 1454 1451 1449 1447 1449 1448 1444 1441 1441 1440 1440 1438 1437 1436 1435 1435 1435 1434 1434 1434 1434 1433 1433 1432 1432 1431 1431 1430 1429
1522 1521 1520 1518 1517 1516 1514 1512 1511 1509 1507 1506 1504 1502 1500 1499 1497 1495 1494 1492 1490 1489 1488 1486 1484 1482 1480 1479 1477 1475 1472 1470 1468 1465 1464 1462 1460 1459 1457 1456 1454 1452 1450 1449 1450 1449 1446 1443 1442 1441 1440 1440 1438 1437 1436 1436 1435 1435 1435 1435 1435 1434 1433 1433 1432 1432 1431 1431 1430
1523 1521 1520 1519 1517 1515 1514 1512 1510 1509 1507 1505 1504 1502 1501 1499 1497 1495 1494 1492 1491 1489 1488 1486 1484 1482 1480 1478 1476 1475 1473 1470 1468 1466 1464 1463 1461 1459 1458 1456 1455 1452 1451 1450 1451 1450 1447 1445 1444 1443 1442 1441 1440 1439 1438 1437 1436 1436 1436 1435 1435 1435 1434 1433 1432 1432 1432 1432 1430
1523 1521 1520 1519 1517 1515 1514 1512 1510 1509 1507 1506 1504 1503 1501 1499 1497 1495 1494 1492 1491 1489 1488 1486 1485 1482 1480 1478 1476 1475 1473 1471 1469 1467 1465 1463 1462 1460 1458 1457 1455 1453 1452 1451 1452 1451 1449 1445 1445 1444 1443 1442 1441 1440 1439 1438 1437 1437 1436 1436 1436 1435 1435 1434 1433 1432 1432 1432 1431
1523 1521 1520 1518 1517 1515 1514 1512 1510 1509 1507 1506 1504 1503 1501 1499 1497 1495 1494 1492 1491 1490 1488 1487 1485 1483 1481 1479 1477 1475 1473 1471 1470 1468 1466 1464 1462 1461 1459 1457 1455 1454 1452 1451 1452 1452 1449 1446 1445 1444 1443 1442 1441 1440 1440 1439 1438 1438 1437 1436 1436 1436 1435 1435 1434 1433 1432 1431 1431
1523 1521 1520 1518 1517 1515 1514 1512 1510 1509 1508 1506 1504 1503 1501 1499 1497 1496 1494 1493 1491 1490 1489 1487 1485 1483 1481 1480 1478 1476 1474 1472 1470 1469 1467 1465 1463 1461 1460 1458 1456 1455 1453 1451 1452 1452 1450 1447 1445 1445 1443 1442 1441 1441 1440 1440 1439 1438 1438 1437 1436 1436 1435 1435 1434 1434 1433 1431 1431
1523 1521 1520 1518 1517 1515 1514 1512 1511 1509 1508 1506 1505 1503 1501 1499 1498 1496 1495 1494 1492 1490 1489 1487 1485 1484 1481 1480 1478 1476 1475 1473 1471 1470 1468 1466 1464 1462 1461 1459 1458 1456 1454 1452 1453 1452 1450 1448 1446 1445 1444 1443 1442 1441 1440 1440 1439 1439 1438 1437 1436 1436 1435 1435 1434 1434 1433 1432 1431
1523 1522 1520 1519 1517 1515 1514 1512 1511 1510 1508 1506 1505 1503 1501 1500 1498 1497 1495 1494 1492 1491 1489 1487 1486 1484 1482 1480 1478 1477 1475 1474 1472 1471 1469 1467 1465 1464 1462 1460 1459 1457 1455 1453 1454 1453 1450 1449 1448 1446 1445 1444 1442 1441 1440 1440 1439 1439 1438 1437 1437 1436 1436 1435 1435 1434 1433 1432 1431
1524 1522 1521 1519 1517 1516 1514 1513 1511 1510 1508 1507 1505 1504 1502 1500 1499 1497 1496 1495 1493 1491 1490 1488 1486 1484 1483 1481 1479 1478 1476 1475 1473 1472 1470 1469 1467 1465 1463 1462 1460 1458 1456 1455 1455 1453 1452 1451 1450 1448 1446 1445 1443 1442 1441 1440 1440 1439 1438 1437 1437 1436 1436 1435 1435 1434 1433 1432 1431
1524 1523 1521 1520 1518 1516 1515 1513 1512 1510 1509 1507 1506 1504 1502 1500 1499 1498 1497 1496 1494 1492 1490 1489 1487 1485 1483 1481 1480 1478 1477 1475 1474 1473 1471 1470 1468 1467 1465 1463 1461 1460 1458 1457 1456 1455 1454 1453 1451 1450 1447 1446 1445 1444 1442 1442 1440 1440 1438 1437 1437 1436 1436 1435 1435 1434 1433 1432 1431
1525 1523 1522 1520 1519 1517 1515 1514 1512 1511 1509 1508 1506 1504 1502 1501 1500 1499 1497 1496 1495 1493 1491 1489 1488 1485 1484 1482 1480 1479 1478 1476 1475 1474 1472 1471 1470 1468 1466 1465 1463 1461 1460 1459 1458 1457 1456 1455 1453 1451 1449 1447 1446 1445 1444 1443 1442 1440 1439 1438 1437 1437 1436 1435 1435 1434 1433 1432 1432
1525 1524 1522 1521 1519 1518 1516 1514 1512 1511 1510 1508 1506 1505 1503 1502 1500 1499 1498 1496 1495 1493 1491 1490 1488 1486 1485 1483 1481 1480 1478 1477 1476 1475 1473 1472 1470 1469 1468 1466 1464 1463 1462 1461 1460 1459 1458 1456 1455 1453 1451 1450 1448 1447 1445 1444 1443 1441 1440 1440 1439 1438 1437 1436 1435 1435 1434 1433 1432
Wind_Speed
28 26 26 25 26 26 27 28 28 28 29 29 29 28 27 25 24 23 23 23 24 24 25 25 25 25 25 25 26 28 29 30 30 30 29 29 28 26 23 21 21 22 23 25 26 26 27 27 26 26 25 24 24 23 23 24 24 24 25 26 26 27 27 26 23 20 18 16 16
27 26 26 25 25 26 27 27 28 28 28 28 28 27 26 24 23 23 23 23 23 24 24 24 25 25 26 26 27 29 30 30 30 30 29 29 28 27 24 22 21 22 24 26 26 26 27 27 26 26 25 24 23 23 23 24 24 25 25 26 27 27 26 25 22 19 17 16 16
28 27 26 26 26 26 27 28 28 28 28 28 27 26 25 23 22 22 22 23 23 24 24 25 25 26 27 28 29 30 31 30 30 30 30 30 29 27 25 24 23 24 25 26 26 26 26 26 26 25 24 23 23 23 24 24 24 24 25 26 27 27 26 24 21 19 17 17 17
27 27 26 26 26 26 27 28 28 28 28 27 27 25 24 22 22 22 22 23 24 24 25 25 27 27 28 29 31 31 31 30 30 30 30 30 29 28 26 25 24 25 25 26 26 26 26 26 25 24 23 23 22 23 24 24 24 24 25 26 26 26 25 24 21 18 17 17 18
28 27 26 26 26 26 27 27 28 28 28 27 26 25 24 22 22 22 23 24 25 25 26 27 28 28 29 31 32 31 31 30 30 30 31 31 30 28 27 26 25 25 26 26 27 27 26 26 25 24 23 23 23 23 23 24 24 24 25 26 26 26 25 23 21 19 18 18 18
28 27 27 26 26 26 27 27 28 28 28 27 26 25 24 23 22 22 24 25 26 26 27 28 28 29 31 32 32 32 31 30 30 31 31 31 31 29 27 26 26 26 26 27 27 27 27 26 25 24 23 23 23 23 23 23 23 24 25 26 26 26 25 23 21 19 18 17 18
28 27 27 27 27 27 27 28 28 28 28 27 26 25 24 23 23 23 24 25 26 27 28 28 29 30 32 33 33 32 31 31 31 31 32 32 31 30 28 27 26 26 26 27 28 29 28 27 27 26 24 23 23 23 22 22 23 24 26 27 27 26 25 23 20 18 17 17 18
28 27 27 27 27 27 28 28 28 28 28 27 26 25 24 24 24 24 25 26 27 28 28 28 29 31 32 33 33 32 31 31 31 31 32 33 32 31 29 28 27 27 27 28 29 29 29 28 27 26 25 24 23 23 22 22 23 25 28 29 28 25 22 20 17 15 15 17 18
28 28 28 28 28 28 28 29 29 28 28 27 27 25 24 24 24 25 26 27 28 28 28 28 29 31 32 33 34 33 32 31 31 32 32 33 32 31 30 29 29 29 29 29 29 30 29 29 28 27 25 24 23 22 22 22 25 28 30 30 28 23 19 15 13 13 15 17 19
28 28 28 28 28 28 28 29 29 28 28 28 27 26 25 24 25 25 26 27 28 28 28 28 29 30 31 33 34 33 32 31 31 31 32 32 32 32 31 31 31 31 31 30 30 30 30 29 28 27 25 23 23 22 23 25 28 30 31 29 25 20 15 11 11 13 15 18 20
28 28 28 28 28 28 28 28 29 28 28 28 27 26 25 25 25 26 26 27 28 28 28 28 28 29 31 32 33 33 32 31 31 30 31 32 32 32 32 32 32 33 33 32 31 31 31 30 28 26 24 23 23 23 25 28 30 31 28 24 20 16 12 11 12 13 16 18 20
28 28 28 28 28 28 28 28 28 28 28 27 27 26 26 26 26 26 27 27 28 28 28 28 28 28 30 31 32 32 31 31 30 29 29 30 32 32 33 33 33 33 33 33 32 32 31 30 28 26 24 23 23 25 28 30 31 29 25 19 15 12 11 12 13 14 16 18 20
28 28 28 28 28 28 28 28 28 27 27 27 27 27 27 27 27 27 27 28 28 29 29 29 29 29 30 31 32 31 31 30 29 29 28 29 31 32 33 33 33 34 34 33 33 32 31 29 26 24 23 23 25 27 30 32 30 27 21 16 12 10 11 12 13 15 16 18 18
30 30 30 29 29 28 28 28 27 27 27 27 27 27 27 28 28 28 28 29 29 30 30 30 31 31 31 31 30 30 30 29 29 29 29 29 31 32 33 33 33 34 34 34 33 32 30 28 25 23 23 24 27 31 33 32 27 22 17 13 11 10 12 13 14 15 16 17 17
31 31 31 31 30 29 28 28 27 27 27 27 28 28 29 29 29 29 29 30 30 30 30 31 32 31 30 29 29 29 29 29 29 29 30 30 31 32 32 32 33 33 34 34 33 31 28 26 23 22 22 26 30 33 33 29 23 17 12 10 10 11 13 14 15 15 16 16 17
33 33 33 32 31 30 29 28 28 27 28 28 29 29 30 31 31 30 30 30 30 30 30 31 31 30 30 29 29 29 29 29 29 29 30 31 31 31 31 32 32 33 34 34 32 28 24 22 20 20 23 28 32 33 30 23 17 11 8 8 10 12 13 15 15 15 15 16 16
34 34 34 33 32 31 30 29 29 28 29 29 30 30 31 31 31 31 30 30 30 31 31 30 30 30 30 29 29 29 29 29 29 29 30 30 30 30 30 30 31 32 33 32 29 25 21 19 18 21 25 31 32 30 25 18 12 9 8 9 11 12 13 13 13 13 14 15 15
35 35 34 34 33 32 31 30 30 30 30 30 31 31 31 32 32 31 30 30 30 31 31 30 30 30 30 30 30 29 29 30 30 30 30 30 29 29 29 29 30 31 31 29 25 22 20 19 20 24 30 33 30 25 20 15 10 9 9 11 11 12 11 11 10 11 12 14 15
35 35 35 34 33 32 31 31 30 30 30 31 31 31 32 32 32 31 31 31 30 30 30 30 30 30 30 30 30 29 29 30 30 30 30 30 29 28 28 28 29 30 29 26 22 19 19 21 24 30 35 34 27 20 17 13 10 9 10 11 10 10 9 9 9 10 11 13 14
35 35 34 33 32 31 31 30 30 30 30 30 31 31 32 32 31 31 31 31 30 30 30 30 30 30 30 30 30 30 30 30 31 31 31 29 28 27 27 28 29 29 26 22 19 17 20 24 31 36 37 32 24 18 14 11 9 9 9 9 8 7 7 7 8 9 11 13 15
34 33 32 31 31 30 30 30 29 30 30 30 30 31 31 31 30 30 30 30 30 30 30 30 30 30 30 30 30 30 31 31 31 31 30 29 27 26 27 28 29 27 23 19 17 18 23 30 37 39 35 27 20 14 10 8 7 7 6 5 5 5 6 7 8 9 11 14 15
33 32 31 30 29 29 28 28 29 29 29 30 30 30 30 30 29 29 29 29 30 30 30 30 30 30 30 30 30 31 31 32 32 31 30 28 27 26 27 28 29 26 21 17 17 21 28 36 40 37 29 19 13 9 7 5 6 6 4 3 3 5 6 8 9 11 14 16 17
32 31 29 28 28 27 27 28 28 29 29 29 29 29 29 29 28 28 28 29 30 30 30 30 30 30 30 30 31 31 32 32 32 31 29 27 27 27 28 29 29 25 20 18 21 26 33 39 39 30 19 11 9 8 6 6 8 8 5 2 4 6 9 11 13 16 18 20 20
30 29 28 28 27 27 27 28 28 29 29 29 29 29 29 28 28 28 29 30 30 30 30 30 30 30 31 31 31 31 32 32 32 31 29 28 28 28 29 30 28 24 20 21 25 31 37 40 32 18 12 12 11 9 10 12 13 11 6 4 6 10 15 17 18 20 21 22 23
28 28 27 27 27 27 28 28 29 30 30 30 29 29 29 28 28 29 30 30 31 31 31 31 31 31 31 31 31 32 32 32 31 31 30 29 29 29 30 30 28 24 21 23 29 35 39 37 20 11 14 12 11 12 14 17 16 12 8 8 12 16 20 20 20 21 22 23 24
27 28 28 28 28 28 28 29 29 30 30 30 29 29 29 29 29 29 30 31 31 31 31 31 31 31 32 32 32 32 32 32 31 30 30 30 30 31 32 31 28 24 22 26 33 39 40 31 14 12 11 10 12 14 16 17 16 13 11 14 19 22 22 21 21 21 22 22 22
28 29 29 29 29 29 29 29 30 30 30 30 30 30 29 29 29 30 31 31 31 31 31 31 31 31 32 33 33 33 33 32 31 30 30 31 32 33 33 32 28 25 25 29 36 40 34 21 16 14 10 10 13 15 17 18 17 16 17 20 23 23 22 20 20 21 22 22 23
29 30 30 30 30 30 30 30 30 31 31 31 31 31 30 30 30 30 30 30 30 30 30 31 31 32 32 33 34 34 33 32 31 30 31 32 34 34 34 31 28 26 28 32 41 37 26 20 20 17 14 13 14 16 18 19 19 20 22 23 23 22 20 20 20 20 21 23 24
30 30 30 30 30 30 30 31 31 31 32 32 32 32 32 32 31 31 30 30 30 30 30 31 31 32 33 33 34 34 33 32 31 31 32 33 35 34 33 30 28 28 30 35 41 34 25 23 22 19 17 16 16 18 19 21 22 23 25 24 22 21 20 20 20 20 21 22 23
30 30 30 30 31 31 31 31 32 32 32 33 33 33 33 32 32 31 30 30 30 29 30 30 31 32 33 33 34 34 33 32 31 31 33 34 34 34 32 29 28 29 32 35 39 32 25 23 23 21 20 19 18 19 20 22 23 25 26 25 23 22 21 21 21 22 22 22 23
30 30 30 30 30 31 31 32 33 33 33 33 33 33 33 33 32 31 30 29 29 29 29 30 31 32 33 33 34 34 33 32 31 32 32 33 33 32 31 29 28 30 33 35 36 31 26 24 24 23 22 22 21 20 21 21 22 23 24 25 25 24 23 23 23 24 24 24 24
30 30 30 30 31 31 32 33 33 34 34 34 34 33 33 32 32 30 29 29 29 30 30 31 32 33 34 34 35 35 34 33 31 31 31 31 31 30 29 28 29 31 33 34 35 32 27 24 25 25 25 24 22 21 20 20 20 20 21 22 24 26 25 25 25 26 26 26 25
31 31 31 31 31 32 33 33 34 34 34 34 34 33 32 32 31 30 29 28 29 30 31 32 33 34 35 36 37 36 35 33 31 30 29 30 30 29 28 28 29 31 33 34 35 33 29 25 26 27 27 26 24 22 20 19 18 17 17 19 22 24 25 25 26 27 27 27 26
32 32 32 32 32 32 33 33 34 34 34 34 33 33 32 31 31 30 29 29 30 31 31 32 33 35 36 37 37 36 34 32 29 28 28 29 28 28 27 27 28 31 33 34 36 35 31 27 27 28 29 28 27 25 23 20 18 17 17 18 19 21 22 22 22 23 25 26 27
32 32 32 33 33 33 34 34 34 34 34 33 33 32 31 30 30 29 29 29 30 31 32 33 34 35 36 35 34 33 31 30 28 27 27 27 28 27 27 26 28 30 33 34 37 37 34 29 29 30 30 30 29 28 26 24 22 20 19 19 19 20 20 20 19 19 21 23 26
33 33 33 33 34 34 34 34 34 33 32 32 31 30 30 29 29 28 29 29 31 32 33 34 35 35 34 33 31 30 29 28 27 25 25 26 27 27 27 27 28 30 33 36 38 38 36 32 30 30 31 31 30 30 29 29 27 24 22 20 20 20 20 19 18 18 18 20 23
33 33 33 33 34 34 34 33 33 32 31 31 30 29 28 28 28 28 28 29 31 32 33 34 34 33 32 29 28 27 26 25 25 24 24 25 27 28 28 28 28 31 34 37 38 38 36 34 32 31 32 32 31 31 31 31 30 28 26 23 21 20 19 18 18 17 17 18 21
32 32 33 33 33 33 33 32 31 31 30 30 29 27 27 26 27 28 29 29 31 32 33 34 33 31 28 26 25 24 24 23 23 23 23 24 26 28 29 29 30 32 34 36 37 37 36 33 31 32 33 33 32 32 31 31 32 30 28 25 23 21 19 18 17 17 17 18 19
32 32 33 32 32 32 32 31 31 30 30 29 27 26 25 26 27 28 29 29 31 32 33 33 30 27 25 24 23 22 22 22 22 22 23 24 26 27 29 30 32 33 33 34 35 36 34 32 31 31 32 33 33 32 32 31 31 30 29 26 24 22 20 19 18 17 18 18 19
31 32 32 32 32 31 31 30 30 30 29 28 26 25 25 26 27 28 29 30 31 32 32 31 28 25 23 23 22 22 21 21 22 22 23 24 25 27 28 30 32 33 32 32 33 34 33 31 31 30 30 32 32 32 32 32 31 30 28 26 24 23 22 20 19 19 19 19 19
30 31 31 31 30 30 29 29 29 29 28 27 25 24 25 26 27 28 29 30 31 32 31 29 26 24 23 23 23 22 21 20 21 22 23 24 25 26 27 29 30 31 31 31 31 31 31 31 30 29 29 30 31 32 32 32 32 30 28 25 24 23 23 22 22 21 20 20 20
Wind_Direction
339 339 339 338 337 336 335 335 336 335 335 334 334 334 334 336 337 338 337 337 336 334 334 333 332 331 330 328 326 325 327 331 336 339 340 339 339 338 338 339 342 345 345 343 341 338 335 331 327 322 318 316 316 318 321 322 324 326 327 328 326 326 326 326 323 321 318 316 313
339 339 339 338 337 337 336 336 336 336 336 336 335 335 335 336 337 337 337 337 336 335 333 332 332 332 331 329 328 329 332 336 339 339 339 338 338 339 339 339 341 342 342 340 337 334 330 326 321 317 315 315 317 320 323 323 324 325 325 325 326 327 328 327 325 322 318 314 313
338 338 338 338 338 337 337 337 337 337 337 337 336 336 336 338 339 338 338 338 338 337 335 334 335 336 334 332 332 334 336 337 338 338 337 337 338 339 339 339 340 340 339 337 334 329 324 320 316 315 315 317 321 323 324 324 324 323 322 324 327 328 329 328 326 324 319 315 315
338 338 338 338 337 337 337 337 337 337 337 337 337 337 338 339 340 340 340 340 339 339 339 340 340 338 336 334 334 335 337 337 337 337 337 337 337 338 339 340 339 339 338 335 330 325 321 317 316 316 318 321 324 324 322 321 321 320 321 323 326 328 329 329 328 325 321 318 318
336 337 337 336 336 336 336 336 336 336 337 337 337 338 339 340 342 342 341 340 340 341 343 344 342 339 336 335 335 336 337 337 337 337 337 337 337 338 339 339 338 337 335 332 329 326 323 321 321 321 323 325 324 322 320 319 319 320 321 324 326 328 329 330 330 329 326 323 322
335 335 335 335 334 335 335 335 335 336 336 337 338 339 340 341 342 342 342 341 341 343 344 344 341 338 336 336 337 337 337 337 338 337 337 336 336 337 338 338 336 334 332 331 331 330 330 329 327 326 326 326 323 321 320 320 319 320 321 324 327 330 331 332 333 333 330 327 324
333 333 333 333 333 334 334 334 334 335 335 336 338 339 340 341 342 342 342 341 342 343 342 340 337 336 336 336 336 336 337 337 337 336 335 335 335 336 337 336 334 332 332 333 333 333 333 332 329 327 326 325 323 321 320 320 320 321 323 326 330 332 333 334 335 335 331 327 323
332 333 333 333 333 333 333 333 333 334 335 336 338 339 340 341 342 342 342 342 341 340 338 335 333 333 333 334 335 335 336 336 335 334 334 334 334 335 336 335 333 333 333 334 334 333 332 330 328 327 328 327 324 321 320 321 322 324 326 330 333 336 337 337 337 334 328 324 323
333 333 333 333 333 333 333 333 333 334 335 337 338 339 340 341 342 342 342 341 340 337 334 332 331 330 330 331 333 334 335 335 333 332 332 332 333 334 335 334 333 333 334 334 333 331 330 328 327 327 327 326 323 322 321 322 325 327 330 334 336 338 340 339 334 328 324 324 325
336 336 335 335 335 334 334 333 334 335 336 338 338 339 341 342 342 342 342 340 338 336 333 331 329 328 328 329 331 332 333 333 332 331 330 331 332 333 334 334 334 334 334 333 331 330 329 327 326 326 326 324 323 322 323 325 328 331 335 338 340 342 342 335 327 323 324 327 327
340 339 339 338 337 336 336 336 336 337 338 339 340 341 342 342 342 341 340 338 336 334 333 331 328 327 326 327 328 330 331 331 331 330 329 330 332 333 333 333 333 333 332 331 330 329 328 326 326 325 324 323 323 323 325 329 333 337 340 344 346 344 337 325 321 325 329 330 326
343 343 343 342 340 339 339 339 340 340 341 341 342 342 342 342 342 340 339 337 335 334 334 331 328 326 325 326 327 328 329 330 331 330 329 329 331 332 332 332 332 331 331 330 330 329 327 326 326 325 324 324 324 325 327 332 338 343 347 351 350 342 328 319 321 329 333 330 323
347 347 347 346 345 344 344 344 343 343 343 343 344 344 343 343 342 340 339 337 335 335 335 332 329 326 325 326 327 328 329 330 331 332 331 329 330 330 331 330 330 330 330 330 330 329 328 326 326 324 323 323 325 327 331 337 343 348 351 353 347 333 320 319 326 332 333 328 323
350 350 350 350 349 349 348 348 347 346 345 345 346 346 345 343 342 340 339 339 337 336 335 332 330 328 328 328 330 331 331 331 333 334 334 332 331 330 329 328 329 329 329 329 329 328 327 326 324 323 322 323 326 331 337 344 349 353 355 351 339 327 322 326 333 335 333 328 326
352 352 352 352 353 352 352 351 349 348 347 347 348 347 346 343 342 341 340 340 338 336 334 333 332 332 333 334 334 334 334 335 335 335 335 334 332 329 328 328 328 329 329 329 328 327 326 325 323 322 322 325 329 337 344 351 357 1 359 347 334 330 331 335 338 337 333 329 330
354 353 354 354 354 354 354 354 352 350 348 348 348 347 346 345 344 342 341 340 339 337 335 335 335 336 337 337 337 337 338 338 337 336 335 334 331 329 328 328 328 329 329 328 327 326 325 324 322 321 323 327 333 341 350 359 5 7 1 346 338 337 338 339 338 336 333 333 334
355 354 354 355 355 355 356 355 353 351 349 348 348 346 345 345 345 343 342 340 339 338 338 339 339 340 340 340 340 340 341 340 339 337 335 333 330 328 327 328 328 329 329 327 326 325 325 324 321 322 326 332 338 346 354 2 6 6 358 350 344 339 337 337 337 336 337 340 340
355 355 354 354 355 355 355 354 352 350 349 348 347 347 347 347 346 344 343 341 341 341 341 341 342 342 342 343 342 343 343 342 340 338 335 333 330 328 327 328 329 329 328 326 325 324 324 324 323 326 332 338 345 351 357 2 4 4 359 351 342 336 335 339 342 344 346 348 346
355 354 354 353 353 354 353 352 350 349 348 347 347 348 348 348 347 346 344 343 343 343 344 343 343 344 345 345 345 344 344 343 342 340 337 334 331 329 328 329 330 329 328 325 323 323 325 326 328 333 339 344 350 356 1 3 2 1 356 346 336 335 341 350 355 354 351 349 347
354 353 352 352 352 352 352 351 350 348 348 348 348 349 349 349 348 347 347 347 347 347 347 346 346 346 346 346 346 346 346 345 343 341 339 336 333 331 330 331 331 330 327 324 322 323 327 332 337 341 345 347 351 358 7 11 7 359 351 340 335 342 356 5 4 356 349 348 350
352 351 351 352 352 352 351 350 349 349 349 349 350 350 350 349 349 349 350 350 350 350 350 349 349 348 348 348 348 348 348 346 344 343 341 338 336 334 333 334 333 331 327 323 323 326 333 340 344 346 347 348 353 5 19 22 11 2 355 345 347 359 10 14 8 0 358 0 1
351 351 352 353 353 353 352 351 350 350 350 351 352 351 351 351 351 352 352 352 352 353 353 352 351 351 350 350 350 349 348 347 346 344 343 341 339 338 337 337 336 333 329 327 328 334 340 345 346 346 346 352 9 31 41 33 25 26 28 17 7 17 27 31 23 19 19 20 17
351 352 355 356 356 355 354 353 352 352 352 352 353 353 352 353 353 355 355 355 355 355 354 354 353 353 352 351 351 350 349 348 347 346 345 343 342 342 342 342 340 337 333 333 335 340 342 342 341 343 355 26 54 67 64 52 50 55 61 48 20 38 51 51 43 38 36 34 31
353 355 358 359 359 358 357 356 355 354 354 353 353 353 354 354 356 357 357 356 356 356 356 355 354 354 353 352 351 350 350 349 349 347 346 345 345 346 346 346 344 340 337 338 341 343 341 336 338 355 45 70 75 71 62 57 57 60 61 37 35 54 64 61 53 47 44 41 38
356 359 1 2 2 1 359 357 356 355 354 354 354 355 355 356 357 357 357 357 357 357 357 356 355 354 353 352 352 352 352 352 350 349 348 348 348 349 350 350 348 344 340 342 346 345 340 337 350 46 80 72 65 59 56 54 55 56 50 40 52 64 68 65 58 53 49 45 42
1 3 4 4 4 3 0 358 357 356 356 356 356 356 356 357 358 358 358 358 358 358 358 357 355 354 354 353 353 353 353 353 352 351 350 350 350 352 353 352 350 346 342 346 348 344 341 345 21 72 78 56 52 52 52 51 52 52 52 56 65 70 70 66 60 55 52 48 45
5 6 6 6 5 3 1 360 359 358 357 358 358 357 357 358 358 358 358 358 359 359 359 357 355 354 354 353 354 354 354 354 354 353 352 351 352 353 354 354 351 347 345 348 346 344 347 8 45 59 54 47 50 51 51 50 51 55 63 69 73 74 71 66 60 56 53 50 47
7 7 7 7 6 4 3 2 1 360 359 359 359 359 358 358 358 358 358 358 359 360 359 357 354 353 354 354 355 355 355 355 354 353 353 353 354 354 355 355 352 350 350 352 350 353 7 44 49 47 46 49 52 53 53 52 55 62 70 75 75 73 68 63 58 54 51 49 47
8 8 7 7 6 5 4 3 2 1 1 0 360 359 359 358 357 357 357 359 359 359 358 356 354 353 354 354 355 356 356 356 355 355 354 355 355 356 356 356 354 354 355 356 357 8 33 52 47 44 48 52 54 55 55 57 60 65 71 74 74 70 66 61 55 50 47 46 45
9 8 8 7 6 5 4 3 2 1 0 360 359 359 358 356 356 356 357 358 359 358 357 355 353 353 353 353 355 356 358 357 357 356 356 356 356 357 357 358 358 359 360 360 3 17 39 48 44 44 48 51 54 57 59 60 62 63 66 68 69 68 66 63 57 50 44 41 41
9 9 8 6 4 3 3 3 1 360 358 358 358 357 355 354 354 355 357 358 358 358 356 354 353 352 352 353 354 356 358 358 358 357 358 358 358 358 359 360 360 1 2 2 7 21 38 44 41 39 41 44 49 54 58 60 61 60 58 57 57 58 60 61 59 53 46 38 35
9 8 6 3 1 1 1 0 359 358 357 356 356 355 354 353 353 355 357 358 358 357 356 355 353 352 352 352 354 356 358 359 359 359 359 360 360 0 1 1 1 2 3 3 9 22 36 42 37 34 34 36 39 44 49 53 55 54 51 46 44 45 48 50 53 52 47 39 32
9 7 5 1 360 359 358 358 357 357 357 356 356 356 355 354 354 356 359 360 359 357 355 354 353 352 352 352 353 355 358 359 360 0 1 1 2 3 3 3 2 3 3 2 9 21 33 39 34 30 29 30 32 35 38 40 42 41 39 36 35 36 39 42 45 48 47 42 33
8 5 3 0 358 357 357 357 357 358 358 358 358 358 357 355 356 357 359 360 358 357 355 355 354 354 353 354 354 357 359 1 1 2 2 3 4 5 6 5 4 4 3 3 9 19 29 35 30 25 24 25 27 29 31 31 30 27 24 23 25 28 31 34 38 42 45 43 36
7 4 1 360 358 358 358 358 359 360 360 360 359 359 358 357 357 358 358 359 358 357 357 356 357 357 357 358 360 1 2 3 3 3 4 4 6 7 8 7 6 7 7 6 10 19 27 31 26 22 20 21 22 25 26 28 26 22 17 14 15 20 24 28 31 35 40 42 38
6 3 1 -0 360 360 0 1 1 0 0 1 0 360 358 358 358 358 358 359 358 358 357 357 358 359 0 2 4 5 6 5 4 4 5 6 8 9 9 8 9 11 13 12 14 20 26 28 24 19 17 18 18 20 22 24 24 23 19 15 13 16 22 27 30 33 37 41 41
6 3 1 0 1 2 2 1 1 1 1 1 0 359 358 358 358 358 359 359 358 357 357 357 359 0 2 3 6 8 8 8 6 6 7 8 10 10 9 9 11 16 19 19 19 22 26 26 22 17 14 15 16 16 17 19 20 21 20 20 18 19 22 27 31 34 37 41 42
6 4 2 1 2 3 3 2 1 1 1 0 360 359 358 359 359 359 359 359 357 356 356 357 359 1 3 4 7 9 11 11 10 10 10 11 11 11 10 11 16 21 24 22 21 22 25 26 22 16 13 13 14 14 14 15 17 17 18 19 20 22 25 29 32 35 37 40 41
7 6 5 4 4 3 2 1 1 1 1 1 359 359 360 0 359 359 359 359 358 356 356 358 1 4 5 6 8 10 12 13 14 14 14 14 13 13 14 17 23 26 26 23 21 22 23 24 22 18 14 12 12 12 12 13 15 15 15 16 18 22 26 29 32 34 36 38 39
7 8 8 7 5 3 1 1 1 2 2 1 0 0 1 1 360 359 359 359 358 358 359 1 5 7 9 9 10 11 12 14 16 17 18 18 16 17 19 24 28 29 28 24 21 21 22 23 22 20 16 13 12 11 11 12 14 15 14 14 16 21 25 28 30 31 32 34 35
9 9 8 7 5 2 1 1 1 2 3 3 3 3 3 1 -0 359 359 359 359 1 3 7 10 12 13 13 12 11 11 14 17 19 21 22 21 22 25 28 30 29 27 25 22 20 21 22 23 22 19 15 12 11 11 12 14 15 14 14 17 21 24 26 26 26 27 29 32